Location: Santaluz Observatory
(32.9930°N, 117.1510°W)
Time: 02:27:38
(UTC-07:00)

Hubble Space Telescope - Visible Passes

Search period start: 25 May 2015 00:00
Search period end: 04 June 2015 00:00
Orbit: 542 x 546 km, 28.5° (Epoch: 23 May)

Date Brightness Start Highest point End Pass type
(mag) Time Alt. Az. Time Alt. Az. Time Alt. Az.
30 May 3.1 04:45:04 10° S 04:46:27 12° SSE 04:47:56 10° SE visible
31 May 2.9 04:35:33 11° S 04:37:39 15° SSE 04:40:03 10° ESE visible
01 Jun 2.6 04:27:12 15° S 04:28:52 18° SSE 04:31:47 10° ESE visible
02 Jun 2.3 04:18:49 19° S 04:20:04 22° SSE 04:23:21 10° ESE visible
03 Jun 2.0 04:10:25 24° S 04:11:18 26° SSE 04:14:49 10° ESE visible
